Regional Weather Roundup
Issued by NWS Newport/Morehead, NC

Current Version | Previous Version | Graphics & Text | Print | Product List | Glossary Off
Versions: 1 2 3 4 5 6 7 8 9 10 11 12 13 14 15 16 17 18 19 20 21 22 23 24 25 26 27 28 29 30 31 32 33 34 35 36 37 38 39 40 41 42 43 44 45 46 47 48 49 50

000
ASUS42 KMHX 210625
RWRMHX
WEATHER ROUNDUP FOR EASTERN NORTH CAROLINA
NATIONAL WEATHER SERVICE NEWPORT/MOREHEAD CITY NC
100 AM EST TUE FEB 21 2017

NOTE: "FAIR" INDICATES FEW OR NO CLOUDS BELOW 12,000 FEET
WITH NO SIGNIFICANT WEATHER AND/OR OBSTRUCTIONS TO VISIBILITY

NCZ015>017-031-032-045>047-102-103-210700-
NORTH COAST

CITY           SKY/WX    TMP DP  RH WIND       PRES   REMARKS
EDENTON        CLOUDY    44  40  86 N3        30.30R
ELIZABETH CITY CLOUDY    45  39  79 NE5       30.28S
KITTY HAWK     NOT AVBL
MANTEO         CLOUDY    47  44  88 E9        30.27S

$$

NCZ045>047-081-094-103-104-210700-
CENTRAL COAST

CITY           SKY/WX    TMP DP  RH WIND       PRES   REMARKS
FRISCO         PTCLDY    54  45  71 NE7       30.24S

$$

NCZ095-097-098-100-101-210700-
SOUTHERN COAST

CITY           SKY/WX    TMP DP  RH WIND       PRES   REMARKS
BEAUFORT       PTCLDY    49  43  80 NE6       30.23F
CEDAR ISLAND   NOT AVBL
JACKSONVILLE   CLOUDY    50  41  71 E7        30.24R
PINEY ISLAND   CLOUDY   N/A N/A N/A NE8       30.24S
WILMINGTON     CLOUDY    54  48  80 E8        30.23R


$$

NCZ011>013-027>030-043-044-078>080-089-090>093-098-210700-
COASTAL PLAIN

CITY           SKY/WX    TMP DP  RH WIND       PRES   REMARKS
AHOSKIE          N/A     44  37  79 CALM      30.28F
CLINTON        PTCLDY    51  46  82 CALM      30.25R
ELIZABETHTOWN  CLOUDY    53  44  72 CALM      30.23R
GOLDSBORO      PTCLDY    49  43  80 NE3       30.24R
GREENVILLE     CLOUDY    46  37  71 CALM      30.28R
HAVELOCK       PTCLDY    50  42  74 NE7       30.24F
KENANSVILLE    NOT AVBL
KINSTON        CLOUDY    48  41  76 CALM      30.27R
NEW BERN       PTCLDY    47  44  90 NE5       30.25F
RICHLANDS      CLOUDY    42  40  92 CALM      30.25R
ROCKY MOUNT    PTCLDY    49  40  71 CALM      30.27R
WASHINGTON     PTCLDY    45  38  77 NE5       30.27S
WHITEVILLE     PTCLDY    54  46  74 E5        30.21S

$$

AMZ130-135-150-152-154-156-158-170-250-252-270-ANZ085-086-088-633-658-670-210700-
MARINE OBSERVATIONS

STATION/POSITION TIME  TEMP    WIND        PRES    WAVE   SWELL
                       AIR SEA DIR/SP/G            HT/PER HT/PER
                 (UTC) (F)     (DEG/KT/KT) (MB)    (FT/S) (FT/S)
CHESAPEAKE LIGHT NOT AVBL
64 E VA BEACH    0550   53 53   60/ 16/ 19 1024.6    4/ 5   2/ 7
DUCK             0600   49 49   40/ 10/ 10 1024.6
2 E DUCK         0600      49                N/A     2/ 7
OREGON INLET     0600   49 51   30/  7/  9 1024.6
13E OREGON INLT  NOT AVBL
HATTERAS CG      0600   55 58   40/  6/ 10 1024.0
DIAMOND BUOY     0550   60 76   50/ 21/ 25 1023.0    7/ 9
CAPE LOOKOUT     0600   54      20/ 10/ 12 1023.3
BEAUFORT LAB     0600   49 53   40/  5/  8 1022.7
30 SE NEW RVR IN 0608   61      60/ 16/ 19 1023.0
30 SE NEW RVR IN 0613      66                N/A     4/ 5
27 SE WRIGHTSVLE 0608   62 62   80/ 16/ 21 1022.2
5 SE WRIGHTSVLE  0608   57 56   60/ 10/ 17 1023.3
225 S CAPE HAT   0550   68 71   40/ 16/ 19 1020.0    4/ 6
41 SE CHARLESTON 0550   68 66  100/ 10/ 12 1021.1    2/ 5   2/ 6

$$




USA.gov is the U.S. government's official web portal to all federal, state and local government web resources and services.